Stündliche Wetter Holovyshche

Heute, 15 Juni, Dienstag

Zeit Temperatur Niederschläge Wind Luftdruck Luftfeuchtigkeit
00:00 +14°C° 0 mm 1 m/S 750 mmHg 89%
01:00 +14°C° 0 mm 2 m/S 750 mmHg 90%
02:00 +13°C° 0 mm 2 m/S 750 mmHg 91%
03:00 +13°C° 0 mm 2 m/S 750 mmHg 91%
04:00 +13°C° 0 mm 1 m/S 750 mmHg 90%
05:00 +13°C° 0 mm 1 m/S 750 mmHg 90%
06:00 +15°C° 0 mm 2 m/S 750 mmHg 83%
07:00 +16°C° 0 mm 2 m/S 750 mmHg 77%
08:00 +18°C° 0 mm 2 m/S 750 mmHg 71%
09:00 +19°C° 0 mm 2 m/S 750 mmHg 66%
10:00 +21°C° 0 mm 2 m/S 750 mmHg 61%
11:00 +22°C° 0 mm 3 m/S 750 mmHg 56%
12:00 +22°C° 0 mm 3 m/S 750 mmHg 54%
13:00 +24°C° 0 mm 3 m/S 749 mmHg 51%
14:00 +24°C° 0 mm 3 m/S 749 mmHg 49%
15:00 +24°C° 0 mm 2 m/S 749 mmHg 51%
16:00 +24°C° 0 mm 2 m/S 749 mmHg 52%
17:00 +24°C° 0 mm 2 m/S 748 mmHg 54%
18:00 +23°C° 0 mm 2 m/S 748 mmHg 61%
19:00 +21°C° 0 mm 2 m/S 748 mmHg 68%
20:00 +19°C° 0 mm 2 m/S 748 mmHg 75%
21:00 +18°C° 0 mm 2 m/S 748 mmHg 79%
22:00 +18°C° 0 mm 2 m/S 748 mmHg 82%
23:00 +17°C° 0 mm 2 m/S 749 mmHg 86%

Morgen, 16 Juni, Mittwoch

Zeit Temperatur Niederschläge Wind Luftdruck Luftfeuchtigkeit
00:00 +16°C° 0 mm 2 m/S 749 mmHg 88%
01:00 +16°C° 0 mm 2 m/S 749 mmHg 91%
02:00 +16°C° 0 mm 2 m/S 749 mmHg 93%
03:00 +15°C° 0 mm 2 m/S 749 mmHg 94%
04:00 +15°C° 0 mm 2 m/S 749 mmHg 95%
05:00 +15°C° 0 mm 2 m/S 749 mmHg 96%
06:00 +16°C° 0 mm 3 m/S 750 mmHg 89%
07:00 +17°C° 0 mm 3 m/S 750 mmHg 81%
08:00 +18°C° 0 mm 3 m/S 750 mmHg 74%
09:00 +20°C° 0 mm 3 m/S 750 mmHg 69%
10:00 +21°C° 0 mm 3 m/S 750 mmHg 64%
11:00 +22°C° 0 mm 3 m/S 751 mmHg 60%
12:00 +22°C° 0 mm 3 m/S 750 mmHg 58%
13:00 +24°C° 0 mm 3 m/S 750 mmHg 57%
14:00 +23°C° 0 mm 4 m/S 750 mmHg 56%
15:00 +23°C° 0 mm 4 m/S 750 mmHg 56%
16:00 +23°C° 0 mm 4 m/S 750 mmHg 56%
17:00 +23°C° 0 mm 4 m/S 750 mmHg 57%
18:00 +21°C° 0 mm 3 m/S 751 mmHg 63%
19:00 +19°C° 0 mm 3 m/S 751 mmHg 70%
20:00 +18°C° 0 mm 3 m/S 751 mmHg 76%
21:00 +17°C° 0 mm 3 m/S 751 mmHg 80%
22:00 +14°C° 0 mm 3 m/S 752 mmHg 83%
23:00 +13°C° 0 mm 3 m/S 752 mmHg 86%

übermorgen, 17 Juni, Donnerstag

Zeit Temperatur Niederschläge Wind Luftdruck Luftfeuchtigkeit
00:00 +13°C° 0 mm 3 m/S 752 mmHg 88%
01:00 +12°C° 0 mm 3 m/S 752 mmHg 89%
02:00 +13°C° 0 mm 2 m/S 752 mmHg 90%
03:00 +13°C° 0 mm 2 m/S 752 mmHg 90%
04:00 +12°C° 0 mm 2 m/S 753 mmHg 89%
05:00 +12°C° 0 mm 2 m/S 753 mmHg 89%
06:00 +14°C° 0 mm 2 m/S 753 mmHg 83%
07:00 +17°C° 0 mm 3 m/S 753 mmHg 78%
08:00 +19°C° 0 mm 3 m/S 753 mmHg 72%
09:00 +20°C° 0 mm 3 m/S 754 mmHg 70%
10:00 +22°C° 0 mm 3 m/S 754 mmHg 67%
11:00 +24°C° 0 mm 3 m/S 754 mmHg 64%
12:00 +25°C° 0 mm 3 m/S 754 mmHg 62%
13:00 +26°C° 0 mm 3 m/S 754 mmHg 60%
14:00 +27°C° 0 mm 3 m/S 753 mmHg 57%
15:00 +27°C° 0 mm 3 m/S 753 mmHg 59%
16:00 +27°C° 0 mm 3 m/S 753 mmHg 60%
17:00 +27°C° 0 mm 3 m/S 753 mmHg 61%
18:00 +25°C° 0 mm 3 m/S 753 mmHg 67%
19:00 +24°C° 0 mm 3 m/S 753 mmHg 73%
20:00 +21°C° 0 mm 2 m/S 753 mmHg 79%
21:00 +20°C° 0 mm 3 m/S 753 mmHg 80%
22:00 +19°C° 0 mm 3 m/S 753 mmHg 82%
23:00 +18°C° 0 mm 3 m/S 754 mmHg 83%

18 Juni, Freitag

Zeit Temperatur Niederschläge Wind Luftdruck Luftfeuchtigkeit
00:00 +18°C° 0 mm 3 m/S 754 mmHg 86%
01:00 +18°C° 0 mm 3 m/S 753 mmHg 89%
02:00 +17°C° 0 mm 3 m/S 753 mmHg 91%
03:00 +17°C° 0 mm 3 m/S 753 mmHg 92%
04:00 +17°C° 0 mm 3 m/S 754 mmHg 93%
05:00 +17°C° 0 mm 2 m/S 754 mmHg 93%
06:00 +19°C° 0 mm 3 m/S 754 mmHg 86%
07:00 +21°C° 0 mm 3 m/S 754 mmHg 80%
08:00 +22°C° 0 mm 4 m/S 754 mmHg 73%
09:00 +23°C° 0 mm 4 m/S 754 mmHg 68%
10:00 +25°C° 0 mm 4 m/S 754 mmHg 63%
11:00 +26°C° 0 mm 4 m/S 754 mmHg 59%
12:00 +27°C° 0 mm 4 m/S 754 mmHg 54%
13:00 +27°C° 0 mm 4 m/S 754 mmHg 50%
14:00 +28°C° 0 mm 4 m/S 753 mmHg 46%
15:00 +28°C° 0 mm 4 m/S 753 mmHg 48%
16:00 +28°C° 0 mm 4 m/S 753 mmHg 51%
17:00 +28°C° 0 mm 3 m/S 753 mmHg 53%
18:00 +26°C° 0 mm 3 m/S 753 mmHg 61%
19:00 +25°C° 0 mm 3 m/S 753 mmHg 68%
20:00 +23°C° 0 mm 2 m/S 752 mmHg 76%
21:00 +21°C° 0 mm 3 m/S 753 mmHg 80%
22:00 +20°C° 0 mm 3 m/S 753 mmHg 85%
23:00 +19°C° 0 mm 3 m/S 753 mmHg 89%

19 Juni, Samstag

Zeit Temperatur Niederschläge Wind Luftdruck Luftfeuchtigkeit
00:00 +18°C° 0 mm 3 m/S 753 mmHg 91%
01:00 +18°C° 0 mm 3 m/S 753 mmHg 93%
02:00 +17°C° 0 mm 3 m/S 753 mmHg 94%
03:00 +17°C° 0 mm 3 m/S 753 mmHg 95%
04:00 +17°C° 0 mm 3 m/S 753 mmHg 96%
05:00 +17°C° 0 mm 3 m/S 753 mmHg 96%
06:00 +19°C° 0 mm 3 m/S 753 mmHg 90%
07:00 +21°C° 0 mm 4 m/S 754 mmHg 84%
08:00 +22°C° 0 mm 4 m/S 754 mmHg 78%
09:00 +25°C° 0 mm 4 m/S 754 mmHg 73%
10:00 +26°C° 0 mm 5 m/S 753 mmHg 68%
11:00 +27°C° 0 mm 5 m/S 753 mmHg 63%
12:00 +28°C° 0 mm 5 m/S 753 mmHg 61%
13:00 +28°C° 0 mm 5 m/S 753 mmHg 60%
14:00 +29°C° 0 mm 4 m/S 753 mmHg 58%
15:00 +28°C° 0 mm 4 m/S 753 mmHg 61%
16:00 +28°C° 0 mm 4 m/S 753 mmHg 65%
17:00 +27°C° 0 mm 3 m/S 753 mmHg 68%
18:00 +26°C° 0 mm 3 m/S 752 mmHg 72%
19:00 +25°C° 0 mm 3 m/S 752 mmHg 76%
20:00 +24°C° 0 mm 2 m/S 752 mmHg 80%
21:00 +23°C° 0 mm 2 m/S 752 mmHg 84%
22:00 +21°C° 0 mm 3 m/S 752 mmHg 87%
23:00 +20°C° 0 mm 3 m/S 753 mmHg 90%

20 Juni, Sonntag

Zeit Temperatur Niederschläge Wind Luftdruck Luftfeuchtigkeit
00:00 +19°C° 0 mm 3 m/S 753 mmHg 91%
01:00 +19°C° 0 mm 2 m/S 753 mmHg 92%
02:00 +18°C° 0 mm 2 m/S 753 mmHg 94%
03:00 +18°C° 0 mm 2 m/S 753 mmHg 93%
04:00 +18°C° 0 mm 2 m/S 753 mmHg 93%
05:00 +18°C° 0 mm 2 m/S 753 mmHg 93%
06:00 +20°C° 0 mm 3 m/S 753 mmHg 87%
07:00 +21°C° 0 mm 3 m/S 753 mmHg 80%
08:00 +23°C° 0 mm 4 m/S 753 mmHg 73%
09:00 +25°C° 0 mm 4 m/S 753 mmHg 67%
10:00 +26°C° 0 mm 4 m/S 753 mmHg 61%
11:00 +27°C° 0 mm 4 m/S 753 mmHg 55%
12:00 +28°C° 0 mm 3 m/S 752 mmHg 52%
13:00 +29°C° 0 mm 3 m/S 752 mmHg 49%
14:00 +29°C° 0 mm 3 m/S 752 mmHg 46%
15:00 +29°C° 0 mm 3 m/S 752 mmHg 49%
16:00 +29°C° 0 mm 3 m/S 751 mmHg 52%
17:00 +28°C° 0 mm 3 m/S 751 mmHg 55%
18:00 +27°C° 0 mm 3 m/S 751 mmHg 61%
19:00 +25°C° 0 mm 3 m/S 751 mmHg 68%
20:00 +24°C° 0 mm 3 m/S 751 mmHg 74%
21:00 +21°C° 0 mm 3 m/S 751 mmHg 78%
22:00 +20°C° 0 mm 3 m/S 751 mmHg 82%
23:00 +19°C° 0 mm 3 m/S 751 mmHg 86%
Mehr zeigen

Wir brauchen deine Erlaubnis

Meteoprog und unser Service Anbieter werden persönliche Daten aufbewahren, so wie Cookies, Geräte Bezeichnung oder ähnliche Technologien von deinem Gerät und Prozess, so wie Persönliche Daten Inhalte und Werbungen, genauso wie social Media und den Verkehr zu analysieren.

  • Aufbewahrung und/oder Zugang zu deiner Geräte Informationen.

    Cookies, Geräte Bezeichnung oder andere Informationen, können aufbewahrt oder Zugang zu deinem Gerät erhalten, für den Grund, der oben angegeben wird.

  • Personalisierte Werbung und Inhalte, Messungen, Einblick in das Publikum und Produkt Entwicklung.

    Werbungen und Inhalte können personalisiert werden, basierend auf ein Profil. Mehr Daten können besser personalisierte Werbungen und Inhalte hinzufügen. Werbung und Inhalte können gezeigt und gemessen werden. Einblicke über das Publikum, welche die Werbung gesehen haben und den Inhalt, können abgeleitet werden. So wie Daten können genutzt werden, um es zu verbessern oder die Benutzer Erfahrung zu verbessern das System und die Software.

Wenn du “Ich stimme zu” klickst, erlaubst du uns, die Cookies zu benutzen die Geräte Bezeichnung, den Web oder ähnliche Technologien zu benutzen. Deine Settings, können in deinem Gerät bei deinem Browser geändert werden.

Für den bestimmten Zweck, berechtigten Interessen beruhen darauf, mehr als auf den Inhalt. Du kannst mehr darüber in unseren Privaten und Cookie Politik lesen.